| time (UTC) | temp C | wind direction | speed KPH | gust KPH | rain 1hr cm | rain 24hr cm | rain mn cm | humidity % | barometer mb |
| 20260504214604 | 19 | 0 | 4.8 | 25.7 | 0.00 | 0.00 | 0.00 | 42 | 1010.2 |
| 20260504213103 | 20 | 139 | 4.8 | 19.3 | 0.00 | 0.00 | 0.00 | 41 | 1010.2 |
| 20260504211600 | 19 | 191 | 4.8 | 17.7 | 0.00 | 0.00 | 0.00 | 44 | 1010.2 |
| 20260504210058 | 19 | 141 | 8.0 | 24.1 | 0.00 | 0.00 | 0.00 | 43 | 1010.3 |
| 20260504204600 | 20 | 130 | 11.3 | 22.5 | 0.00 | 0.00 | 0.00 | 42 | 1010.3 |
| 20260504203058 | 20 | 324 | 3.2 | 11.3 | 0.00 | 0.00 | 0.00 | 41 | 1010.5 |
| 20260504201611 | 20 | 8 | 1.6 | 22.5 | 0.00 | 0.00 | 0.00 | 40 | 1010.6 |
| 20260504200104 | 20 | 132 | 1.6 | 19.3 | 0.00 | 0.00 | 0.00 | 42 | 1010.9 |
| 20260504194605 | 20 | 237 | 4.8 | 22.5 | 0.00 | 0.00 | 0.00 | 43 | 1011.0 |
| 20260504193100 | 20 | 279 | 3.2 | 20.9 | 0.00 | 0.00 | 0.00 | 39 | 1011.0 |
| 20260504191621 | 20 | 147 | 3.2 | 20.9 | 0.00 | 0.00 | 0.00 | 43 | 1011.1 |
| 20260504190109 | 20 | 270 | 4.8 | 32.2 | 0.00 | 0.00 | 0.00 | 40 | 1011.3 |
| 20260504184609 | 20 | 274 | 3.2 | 22.5 | 0.00 | 0.00 | 0.00 | 39 | 1011.5 |
| 20260504183100 | 19 | 147 | 6.4 | 24.1 | 0.00 | 0.00 | 0.00 | 45 | 1011.6 |
| 20260504181606 | 19 | 212 | 6.4 | 24.1 | 0.00 | 0.00 | 0.00 | 42 | 1011.9 |
| 20260504180059 | 19 | 159 | 8.0 | 27.4 | 0.00 | 0.00 | 0.00 | 39 | 1012.2 |
| 20260504174559 | 19 | 220 | 6.4 | 24.1 | 0.00 | 0.00 | 0.00 | 43 | 1012.2 |
| 20260504173105 | 19 | 131 | 3.2 | 12.9 | 0.00 | 0.00 | 0.00 | 40 | 1012.3 |
| 20260504171604 | 18 | 329 | 1.6 | 11.3 | 0.00 | 0.00 | 0.00 | 45 | 1012.5 |
| 20260504140106 | 13 | 0 | 1.6 | 12.9 | 0.00 | 0.00 | 0.00 | 47 | 1014.4 |
| 20260504081611 | 5 | 0 | 0.0 | 0.0 | 0.00 | 0.00 | 0.00 | 64 | 1015.0 |
| 20260504070105 | 6 | 0 | 0.0 | 0.0 | 0.00 | 0.00 | 0.00 | 63 | 1014.9 |
| 20260504060108 | 6 | 0 | 0.0 | 0.0 | 0.00 | 0.00 | 0.00 | 61 | 1014.8 |
| 20260504050108 | 6 | 0 | 0.0 | 0.0 | 0.00 | 0.00 | 0.00 | 60 | 1014.9 |
| 20260504044557 | 6 | 0 | 0.0 | 0.0 | 0.00 | 0.00 | 0.00 | 60 | 1014.9 |
| 20260504043103 | 6 | 0 | 0.0 | 0.0 | 0.00 | 0.00 | 0.00 | 59 | 1015.0 |
| 20260504041603 | 6 | 0 | 0.0 | 0.0 | 0.00 | 0.00 | 0.00 | 58 | 1014.9 |
| 20260504040113 | 6 | 0 | 0.0 | 0.0 | 0.00 | 0.00 | 0.00 | 57 | 1014.7 |
| 20260504034613 | 7 | 0 | 0.0 | 0.0 | 0.00 | 0.00 | 0.00 | 57 | 1014.4 |
| 20260504033103 | 7 | 0 | 0.0 | 0.0 | 0.00 | 0.00 | 0.00 | 56 | 1014.3 |
| 20260504031622 | 7 | 0 | 0.0 | 0.0 | 0.00 | 0.00 | 0.00 | 56 | 1014.3 |
| 20260504030115 | 7 | 0 | 0.0 | 0.0 | 0.00 | 0.00 | 0.00 | 55 | 1014.2 |
| 20260504024603 | 7 | 0 | 0.0 | 0.0 | 0.00 | 0.00 | 0.00 | 54 | 1014.2 |
| 20260504023058 | 7 | 0 | 0.0 | 0.0 | 0.00 | 0.00 | 0.00 | 54 | 1014.2 |
| 20260504021610 | 7 | 0 | 0.0 | 0.0 | 0.00 | 0.00 | 0.00 | 54 | 1014.3 |
| 20260504020055 | 8 | 0 | 0.0 | 0.0 | 0.00 | 0.00 | 0.00 | 52 | 1014.4 |
| 20260504014556 | 8 | 0 | 0.0 | 0.0 | 0.00 | 0.00 | 0.00 | 51 | 1014.2 |
| 20260504013100 | 8 | 0 | 0.0 | 0.0 | 0.00 | 0.00 | 0.00 | 49 | 1014.3 |
| 20260504011558 | 8 | 0 | 0.0 | 0.0 | 0.00 | 0.00 | 0.00 | 49 | 1014.1 |
| 20260504010100 | 9 | 0 | 0.0 | 0.0 | 0.00 | 0.00 | 0.00 | 48 | 1014.1 |
| 20260504004601 | 10 | 0 | 0.0 | 0.0 | 0.00 | 0.00 | 0.00 | 47 | 1014.0 |
| 20260504003058 | 10 | 0 | 0.0 | 0.0 | 0.00 | 0.00 | 0.00 | 46 | 1013.6 |
| 20260504001558 | 10 | 0 | 0.0 | 0.0 | 0.00 | 0.00 | 0.00 | 44 | 1013.4 |
| 20260504000138 | 11 | 0 | 0.0 | 4.8 | 0.00 | 0.00 | 0.00 | 43 | 1013.3 |
| 20260503234604 | 11 | 0 | 0.0 | 4.8 | 0.00 | 0.00 | 0.00 | 43 | 1013.3 |
| 20260503233058 | 12 | 0 | 1.6 | 6.4 | 0.00 | 0.00 | 0.00 | 40 | 1013.2 |
| 20260503231559 | 12 | 0 | 0.0 | 3.2 | 0.00 | 0.00 | 0.00 | 44 | 1013.0 |
| 20260503230100 | 12 | 0 | 1.6 | 4.8 | 0.00 | 0.00 | 0.00 | 41 | 1012.9 |
| 20260503224601 | 12 | 185 | 3.2 | 9.7 | 0.00 | 0.00 | 0.00 | 38 | 1013.0 |
| 20260503223058 | 12 | 264 | 1.6 | 9.7 | 0.00 | 0.00 | 0.00 | 39 | 1012.9 |
| 20260503221603 | 13 | 271 | 1.6 | 8.0 | 0.00 | 0.00 | 0.00 | 38 | 1012.9 |